Location: Be?chatów
(51.3665°N, 19.3745°E)
Time: 08:45:55
(UTC+00:00)

Cosmos 1908 - Pass Details

Date: 19 May 2025
Orbit: 405 x 413 km, 82.5° (Epoch: 16 June)

Event Time Altitude Azimuth Distance (km) Brightness Sun altitude
Rises 21:29:50 0° 353° (N) 2,383 8.2 -17.1°
Reaches altitude 10° 21:31:56 10° 360° (N) 1,511 6.7 -17.2°
Maximum altitude 21:35:08 48° 76° (ENE) 560 3.3 -17.3°
Enters shadow 21:35:46 40° 114° (ESE) 627 3.3 -17.3°
